Regional Weather Roundup
Issued by NWS State College, PA

Home | Current Version | Previous Version | Graphics & Text | Print | Product List | Glossary On
Versions: 1 2 3 4 5 6 7 8 9 10 11 12 13 14 15 16 17 18 19 20 21 22 23 24 25 26 27 28 29 30 31 32 33 34 35 36 37 38 39 40 41 42 43 44 45 46 47 48 49 50
000
ASUS41 KCTP 191710
RWRCTP

REGIONAL WEATHER ROUNDUP
NATIONAL WEATHER SERVICE STATE COLLEGE PA
100 PM EDT FRI SEP 19 2014

Note: "fair" indicates few or no clouds below 12,000 feet with no
significant weather and/or obstructions to visibility.

* = STATION THAT DOES NOT REPORT PRECIPITATION /E.G. RAIN...SNOW...ETC/
    THUNDER OR FOG.

PAZ002>004-007>009-013>016-020>023-029>032-191800-
WESTERN PENNSYLVANIA

CITY           SKY/WX    TMP DP  RH WIND       PRES   REMARKS
ERIE           PTSUNNY   62  45  53 NE3       30.26F
MEADVILLE      SUNNY     60  46  59 E3        30.26F
FRANKLIN*      SUNNY     63  46  55 E7        30.27F
NEW CASTLE     NOT AVBL
BEAVER COUNTY  SUNNY     68  50  52 E5        30.23F
BUTLER*        MOSUNNY   66  50  55 NE10      30.25F
PITTSBURGH INT MOSUNNY   68  49  50 VRB5      30.22S
PITTSBURGH     SUNNY     68  49  50 SE8       30.22S
INDIANA*       MOSUNNY   68  50  52 SE8       30.28S
LATROBE        MOSUNNY   70  54  56 SE12      30.24S
WASHINGTON CO* SUNNY     68  52  56 NE7       30.22S
$$

PAZ004>006-010>012-017>019-024>028-033>037-041-042-045-046-049>053-191800-
CENTRAL PENNSYLVANIA

CITY           SKY/WX    TMP DP  RH WIND       PRES   REMARKS
BRADFORD       SUNNY     59  43  55 VRB3      30.28F
DUBOIS         SUNNY     62  50  64 E6        30.26F
CLEARFIELD     MOSUNNY   63  50  62 E5        30.29S
JOHNSTOWN      MOSUNNY   61  49  64 SE7       30.27R
ALTOONA        PTSUNNY   65  50  58 CALM      30.28F
STATE COLLEGE  MOSUNNY   61  50  67 NE9       30.30S
WILLIAMSPORT   SUNNY     64  43  46 E6        30.30F
SELINSGROVE    SUNNY     66  48  52 CALM      30.31S
FT INDIANTOWN  SUNNY     66  49  55 VRB3      30.31S
CAPITAL CITY   SUNNY     67  49  52 E9        30.30F
HARRISBURG     SUNNY     71  50  47 S6        30.29F
YORK           SUNNY     69  52  54 E7        30.29F
$$

PAZ038>040-043-044-047-048-054-055-060>062-067>071-191800-
EASTERN PENNSYLVANIA

CITY           SKY/WX    TMP DP  RH WIND       PRES   REMARKS
SCRANTON       SUNNY     63  42  46 N7        30.31F
MOUNT POCONO   MOSUNNY   56  43  61 E7        30.33R
ALLENTOWN      MOSUNNY   65  48  54 E10       30.33S
QUAKERTOWN*    MOSUNNY   63  48  59 NE5       30.33F
READING        MOSUNNY   67  49  52 VRB6      30.30S
LANCASTER      SUNNY     66  50  56 VRB7      30.30F
COATESVILLE    CLOUDY    63  54  72 E9G16     30.33R
POTTSTOWN      CLOUDY    62  50  64 E7        30.34R
BLUE BELL      PTSUNNY   68  50  52 E8        30.32R
DOYLESTOWN     MOSUNNY   64  46  52 VRB5      30.32S
WILLOW GROVE   NOT AVBL
NORTH PHILA    MOSUNNY   68  46  45 E12G17    30.34S
PHILADELPHIA   PTSUNNY   68  52  56 E8        30.32S
$$



USA.gov is the U.S. government's official web portal to all federal, state and local government web resources and services.